Terminal Aerodrome Forecast
Issued by NWS Amarillo, TX

Home | Current Version | Previous Version | Text Only | Print | Product List | Glossary On
Versions: 1 2 3 4 5 6 7 8 9 10 11 12
448
FTUS44 KAMA 291121
TAFGUY
TAF
KGUY 291121Z 2912/3012 09009KT P6SM FEW200
     FM291800 15012KT P6SM SCT200=

USA.gov is the U.S. government's official web portal to all federal, state and local government web resources and services.